EW5093 Weather Reports


Display with metric or nautical units.
time (UTC)temp
F
wind
direction
speed
MPH
gust
MPH
rain 1hr
in
rain 24hr
in
rain mn
in
humidity
%
barometer
mb
20260505124532 56 0 0.0 0.0 0.00 0.00 0.00 80 1014.3
20260505124012 56 0 0.0 0.0 0.00 0.00 0.00 80 1014.2
20260505123513 56 0 0.0 0.0 0.00 0.00 0.00 79 1014.2
20260505123031 56 0 0.0 0.0 0.00 0.00 0.00 80 1014.2
20260505122510 56 0 0.0 0.0 0.00 0.00 0.00 80 1014.2
20260505122015 56 0 0.0 0.0 0.00 0.00 0.00 80 1014.1
20260505121536 56 0 0.0 0.0 0.00 0.00 0.00 80 1014.2
20260505121014 56 0 0.0 0.0 0.00 0.00 0.00 80 1014.1
20260505120514 56 0 0.0 0.0 0.00 0.00 0.00 80 1014.1
20260505120055 56 0 0.0 0.0 0.00 0.00 0.00 81 1014.0
20260505115516 56 0 0.0 0.0 0.00 0.00 0.00 80 1014.0
20260505115015 56 0 0.0 0.0 0.00 0.00 0.00 80 1014.1
20260505114531 56 0 0.0 0.0 0.00 0.00 0.00 80 1014.0
20260505114013 56 0 0.0 0.0 0.00 0.00 0.00 80 1014.0
20260505113513 56 0 0.0 2.0 0.00 0.00 0.00 80 1014.0
20260505113028 56 0 0.0 3.0 0.00 0.00 0.00 80 1014.0
20260505112516 56 351 0.0 4.0 0.00 0.00 0.00 80 1014.0
20260505112014 56 355 1.0 4.0 0.00 0.00 0.00 80 1014.0
20260505111532 56 346 0.0 4.0 0.00 0.00 0.00 80 1014.0
20260505111013 56 346 0.0 4.0 0.00 0.00 0.00 80 1013.9
20260505110512 56 0 0.0 4.0 0.00 0.00 0.00 80 1013.9
20260505102015 56 345 0.0 3.0 0.00 0.00 0.00 80 1013.6
20260505101530 56 0 0.0 3.0 0.00 0.00 0.00 80 1013.6
20260505101013 56 0 1.0 3.0 0.00 0.00 0.00 80 1013.6
20260505100516 56 350 1.0 3.0 0.00 0.00 0.00 80 1013.6
20260505100032 56 352 1.0 3.0 0.00 0.00 0.00 80 1013.7
20260505095509 56 344 0.0 3.0 0.00 0.00 0.00 80 1013.7
20260505095019 56 348 0.0 3.0 0.00 0.00 0.00 80 1013.7
20260505094532 56 0 0.0 3.0 0.00 0.00 0.00 80 1013.7
20260505094014 57 0 0.0 4.0 0.00 0.00 0.00 80 1013.6
20260505093513 57 333 0.0 4.0 0.00 0.00 0.00 80 1013.6
20260505093033 57 337 1.0 3.0 0.00 0.00 0.00 80 1013.5
20260505092514 57 28 0.0 2.0 0.00 0.00 0.00 80 1013.4
20260505092013 57 0 0.0 2.0 0.00 0.00 0.00 80 1013.5
20260505091531 57 0 0.0 2.0 0.00 0.00 0.00 80 1013.5
20260505091012 57 355 0.0 2.0 0.00 0.00 0.00 80 1013.5
20260505090512 57 0 0.0 3.0 0.00 0.00 0.00 80 1013.4
20260505090041 57 0 0.0 3.0 0.00 0.00 0.00 80 1013.3
20260505085521 57 0 0.0 3.0 0.00 0.00 0.00 80 1013.3
20260505085012 57 274 0.0 2.0 0.00 0.00 0.00 81 1013.3
20260505084530 57 263 0.0 2.0 0.00 0.00 0.00 81 1013.3
20260505084017 57 0 0.0 2.0 0.00 0.00 0.00 80 1013.3
20260505083513 57 0 0.0 2.0 0.00 0.00 0.00 80 1013.3
20260505083030 57 335 0.0 2.0 0.00 0.00 0.00 80 1013.2
20260505082510 57 340 0.0 2.0 0.00 0.00 0.00 80 1013.2
20260505082010 57 0 0.0 2.0 0.00 0.00 0.00 80 1013.3
20260505081535 57 0 0.0 1.0 0.00 0.00 0.00 80 1013.1
20260505081014 57 337 0.0 4.0 0.00 0.00 0.00 80 1013.2
20260505080512 57 0 0.0 4.0 0.00 0.00 0.00 81 1013.1
20260505080037 57 342 1.0 4.0 0.00 0.00 0.00 80 1013.1
20260505075513 57 346 1.0 4.0 0.00 0.00 0.00 80 1013.0
20260505075013 57 337 0.0 4.0 0.00 0.00 0.00 80 1013.0
20260505074531 57 350 0.0 4.0 0.00 0.00 0.00 80 1012.9
20260505074011 57 334 0.0 3.0 0.00 0.00 0.00 80 1012.8
20260505073512 57 328 1.0 4.0 0.00 0.00 0.00 80 1012.8
20260505073046 57 352 1.0 4.0 0.00 0.00 0.00 79 1012.7
20260505072518 57 0 0.0 3.0 0.00 0.00 0.00 79 1012.6
20260505072013 57 346 0.0 4.0 0.00 0.00 0.00 79 1012.6
20260505071529 58 0 1.0 4.0 0.00 0.00 0.00 78 1012.5
20260505071011 58 5 0.0 4.0 0.00 0.00 0.00 78 1012.4
20260505070513 58 343 1.0 4.0 0.00 0.00 0.00 78 1012.5
20260505070032 58 331 0.0 5.0 0.00 0.00 0.00 78 1012.5
20260505065513 59 322 1.0 5.0 0.00 0.00 0.00 78 1012.5
20260505065012 59 0 1.0 6.0 0.00 0.00 0.00 77 1012.4
20260505064540 59 0 0.0 6.0 0.00 0.00 0.00 77 1012.2
20260505064013 59 332 1.0 6.0 0.00 0.00 0.00 77 1012.1
20260505063513 59 317 0.0 3.0 0.00 0.00 0.00 76 1012.1
20260505063030 59 0 0.0 1.0 0.00 0.00 0.00 76 1012.1
20260505062511 59 0 0.0 4.0 0.00 0.00 0.00 75 1012.0
20260505062015 60 257 1.0 4.0 0.00 0.00 0.00 75 1011.9
20260505061545 60 13 0.0 3.0 0.00 0.00 0.00 75 1011.8
20260505061012 60 13 0.0 3.0 0.00 0.00 0.00 75 1011.8
20260505060515 60 0 0.0 2.0 0.00 0.00 0.00 74 1011.8
20260505060034 60 334 0.0 4.0 0.00 0.00 0.00 74 1011.8
20260505055512 60 0 0.0 4.0 0.00 0.00 0.00 74 1011.7
20260505055014 61 332 0.0 3.0 0.00 0.00 0.00 73 1011.8
20260505054551 61 313 1.0 3.0 0.00 0.00 0.00 73 1011.8
20260505054015 61 0 0.0 5.0 0.00 0.00 0.00 72 1011.7
20260505053512 62 0 0.0 6.0 0.00 0.00 0.00 72 1011.7
20260505053035 62 280 1.0 6.0 0.00 0.00 0.00 71 1011.7
20260505052513 62 296 1.0 6.0 0.00 0.00 0.00 71 1011.6
20260505052012 62 0 1.0 5.0 0.00 0.00 0.00 70 1011.6
20260505051534 63 307 1.0 4.0 0.00 0.00 0.00 70 1011.6
20260505051017 63 24 0.0 4.0 0.00 0.00 0.00 70 1011.5
20260505050513 63 0 0.0 3.0 0.00 0.00 0.00 69 1011.5
20260505041531 67 0 1.0 4.0 0.00 0.00 0.00 64 1010.8
20260505041013 67 312 1.0 4.0 0.00 0.00 0.00 64 1010.7
20260505040511 67 321 1.0 5.0 0.00 0.00 0.00 63 1010.6
20260505040032 68 294 1.0 8.0 0.00 0.00 0.00 63 1010.6
20260505035510 68 5 1.0 8.0 0.00 0.00 0.00 63 1010.5
20260505035010 68 348 1.0 6.0 0.00 0.00 0.00 62 1010.4
20260505034530 69 311 1.0 10.0 0.00 0.00 0.00 62 1010.2
20260505034018 69 325 2.0 10.0 0.00 0.00 0.00 62 1010.0
20260505033514 70 327 3.0 10.0 0.00 0.00 0.00 63 1009.9
20260505033033 70 0 2.0 9.0 0.00 0.00 0.00 65 1009.9
20260505032512 70 139 0.0 7.0 0.00 0.00 0.00 65 1009.6
20260505032011 70 153 1.0 7.0 0.00 0.00 0.00 65 1009.4
20260505031543 70 137 2.0 6.0 0.00 0.00 0.00 65 1009.4
20260505031013 70 104 1.0 5.0 0.00 0.00 0.00 66 1009.4
20260505030514 70 148 0.0 4.0 0.00 0.00 0.00 66 1009.3
20260505030032 71 144 1.0 5.0 0.00 0.00 0.00 65 1009.3
20260505025513 71 202 2.0 5.0 0.00 0.00 0.00 65 1009.2
20260505025014 71 0 0.0 3.0 0.00 0.00 0.00 65 1009.1
20260505024535 71 0 0.0 4.0 0.00 0.00 0.00 64 1009.0
20260505024014 71 0 1.0 4.0 0.00 0.00 0.00 64 1009.1
20260505023511 72 184 1.0 4.0 0.00 0.00 0.00 63 1009.1
20260505023030 72 0 0.0 6.0 0.00 0.00 0.00 63 1009.1
20260505022513 73 179 1.0 7.0 0.00 0.00 0.00 62 1009.0
20260505022013 73 205 2.0 7.0 0.00 0.00 0.00 61 1009.1
20260505021532 74 0 0.0 6.0 0.00 0.00 0.00 60 1009.1
20260505021013 73 186 1.0 6.0 0.00 0.00 0.00 61 1009.0
20260505020511 73 166 2.0 7.0 0.00 0.00 0.00 60 1009.1
20260505020033 74 174 2.0 7.0 0.00 0.00 0.00 60 1009.1
20260505015518 74 149 1.0 4.0 0.00 0.00 0.00 59 1009.1
20260505015011 74 0 0.0 7.0 0.00 0.00 0.00 59 1009.1
20260505014536 74 0 1.0 7.0 0.00 0.00 0.00 59 1009.1
20260505014015 74 144 2.0 7.0 0.00 0.00 0.00 59 1009.1
20260505013514 74 195 1.0 7.0 0.00 0.00 0.00 58 1009.2
20260505013030 74 194 2.0 7.0 0.00 0.00 0.00 58 1009.2
20260505012513 74 132 2.0 6.0 0.00 0.00 0.00 58 1009.2
20260505012011 75 190 2.0 5.0 0.00 0.00 0.00 58 1009.3
20260505011534 75 182 2.0 5.0 0.00 0.00 0.00 57 1009.4
20260505011010 75 0 1.0 7.0 0.00 0.00 0.00 56 1009.3
20260505010513 75 199 2.0 7.0 0.00 0.00 0.00 56 1009.4
20260505010031 76 185 1.0 5.0 0.00 0.00 0.00 54 1009.4
20260505005510 75 300 2.0 5.0 0.00 0.00 0.00 57 1009.4
20260505005011 76 94 1.0 4.0 0.00 0.00 0.00 55 1009.5
20260505004544 77 300 1.0 7.0 0.00 0.00 0.00 54 1009.5
20260505004013 75 0 1.0 7.0 0.00 0.00 0.00 56 1009.6
20260505003510 75 184 3.0 7.0 0.00 0.00 0.00 56 1009.6
20260505003031 75 139 2.0 8.0 0.00 0.00 0.00 56 1009.5
20260505002518 75 154 1.0 8.0 0.00 0.00 0.00 56 1009.6
20260505002022 76 138 3.0 8.0 0.00 0.00 0.00 55 1009.5
20260505001530 77 128 2.0 8.0 0.00 0.00 0.00 54 1009.6
20260505001019 76 145 1.0 7.0 0.00 0.00 0.00 56 1009.6
20260505000513 76 164 1.0 8.0 0.00 0.00 0.00 55 1009.7
20260505000044 76 186 3.0 8.0 0.00 0.00 0.00 55 1009.7
20260504235514 76 32 2.0 8.0 0.00 0.00 0.00 54 1009.7
20260504235011 76 198 3.0 7.0 0.00 0.00 0.00 53 1009.8
20260504234531 76 88 2.0 9.0 0.00 0.00 0.00 54 1009.8
20260504234016 76 90 3.0 9.0 0.00 0.00 0.00 53 1009.8
20260504233517 76 140 3.0 9.0 0.00 0.00 0.00 53 1009.8
20260504233032 76 282 3.0 8.0 0.00 0.00 0.00 52 1009.8
20260504232516 77 105 1.0 7.0 0.00 0.00 0.00 52 1009.8
20260504232018 75 296 2.0 7.0 0.00 0.00 0.00 54 1010.0
20260504231531 76 186 1.0 7.0 0.00 0.00 0.00 53 1010.1
20260504231014 76 138 2.0 7.0 0.00 0.00 0.00 52 1010.1
20260504230513 77 89 1.0 6.0 0.00 0.00 0.00 51 1010.2
20260504230030 75 126 2.0 6.0 0.00 0.00 0.00 53 1010.2
20260504225514 76 155 2.0 6.0 0.00 0.00 0.00 51 1010.2
20260504225017 76 264 1.0 7.0 0.00 0.00 0.00 51 1010.2
20260504224531 76 73 2.0 7.0 0.00 0.00 0.00 51 1010.2
20260504224016 76 124 2.0 4.0 0.00 0.00 0.00 53 1010.3
20260504223511 75 171 1.0 4.0 0.00 0.00 0.00 53 1010.3
20260504223029 76 0 1.0 5.0 0.00 0.00 0.00 52 1010.5
20260504222511 75 157 2.0 9.0 0.00 0.00 0.00 53 1010.6
20260504222014 75 149 3.0 9.0 0.00 0.00 0.00 53 1010.6
20260504221537 74 88 2.0 8.0 0.00 0.00 0.00 53 1010.6
20260504221014 74 161 2.0 7.0 0.00 0.00 0.00 53 1010.7
20260504220511 74 92 3.0 7.0 0.00 0.00 0.00 53 1010.8
20260504220032 74 119 3.0 8.0 0.00 0.00 0.00 53 1010.8
20260504215511 75 145 2.0 9.0 0.00 0.00 0.00 53 1011.0
20260504215011 74 0 2.0 9.0 0.00 0.00 0.00 53 1010.8
20260504214529 73 103 1.0 7.0 0.00 0.00 0.00 55 1011.0
20260504214013 74 142 1.0 7.0 0.00 0.00 0.00 53 1011.0
20260504213514 73 169 3.0 7.0 0.00 0.00 0.00 55 1011.1
20260504213036 73 142 1.0 8.0 0.00 0.00 0.00 55 1011.2
20260504212512 73 106 2.0 8.0 0.00 0.00 0.00 57 1011.2
20260504212013 72 150 2.0 8.0 0.00 0.00 0.00 55 1011.3
20260504211529 69 167 1.0 8.0 0.00 0.00 0.00 59 1011.3
20260504211013 71 155 4.0 8.0 0.00 0.00 0.00 58 1011.5
20260504210511 71 188 2.0 9.0 0.00 0.00 0.00 57 1011.5
20260504210032 71 170 2.0 9.0 0.00 0.00 0.00 55 1011.5
20260504205512 70 207 4.0 9.0 0.00 0.00 0.00 57 1011.6
20260504205011 70 157 2.0 5.0 0.00 0.00 0.00 58 1011.7
20260504204532 69 145 2.0 8.0 0.00 0.00 0.00 59 1011.8
20260504204014 69 180 3.0 8.0 0.00 0.00 0.00 59 1011.9
20260504203518 70 165 2.0 8.0 0.00 0.00 0.00 58 1012.0
20260504203031 69 80 2.0 8.0 0.00 0.00 0.00 61 1011.9
20260504202517 69 113 3.0 8.0 0.00 0.00 0.00 59 1012.0
20260504202017 69 174 3.0 8.0 0.00 0.00 0.00 61 1012.0
20260504201530 69 196 3.0 8.0 0.00 0.00 0.00 61 1012.1
20260504201013 68 151 3.0 7.0 0.00 0.00 0.00 62 1012.2
20260504200511 69 169 3.0 7.0 0.00 0.00 0.00 61 1012.3
20260504200030 69 33 1.0 8.0 0.00 0.00 0.00 59 1012.3
20260504195513 68 171 2.0 8.0 0.00 0.00 0.00 63 1012.4
20260504195011 68 125 3.0 7.0 0.00 0.00 0.00 63 1012.5
20260504194532 67 161 2.0 7.0 0.00 0.00 0.00 64 1012.4
20260504194011 66 131 1.0 10.0 0.00 0.00 0.00 66 1012.5
20260504193511 64 134 3.0 12.0 0.00 0.00 0.00 67 1012.5
20260504193032 64 171 5.0 12.0 0.00 0.00 0.00 66 1012.6
20260504192513 65 187 4.0 9.0 0.00 0.00 0.00 65 1012.6
20260504192015 65 155 4.0 9.0 0.00 0.00 0.00 67 1012.7
20260504191530 65 200 2.0 8.0 0.00 0.00 0.00 66 1012.7
20260504191012 65 169 2.0 7.0 0.00 0.00 0.00 66 1012.7
20260504190515 65 113 3.0 8.0 0.00 0.00 0.00 65 1012.7
20260504190030 65 108 2.0 8.0 0.00 0.00 0.00 65 1012.8
20260504185512 65 165 2.0 8.0 0.00 0.00 0.00 68 1012.9
20260504185013 64 136 1.0 8.0 0.00 0.00 0.00 67 1012.9
20260504184531 63 0 2.0 8.0 0.00 0.00 0.00 69 1013.1
20260504184012 64 123 3.0 8.0 0.00 0.00 0.00 67 1013.0
20260504183512 63 69 2.0 9.0 0.00 0.00 0.00 69 1013.0
20260504183031 62 134 3.0 10.0 0.00 0.00 0.00 71 1013.0
20260504182511 62 165 4.0 10.0 0.00 0.00 0.00 69 1012.9
20260504182013 63 139 3.0 7.0 0.00 0.00 0.00 69 1012.9
20260504181533 63 0 1.0 7.0 0.00 0.00 0.00 67 1012.9
20260504181011 63 0 2.0 7.0 0.00 0.00 0.00 70 1012.9
20260504180517 62 161 1.0 8.0 0.00 0.00 0.00 70 1012.9
20260504180031 60 140 2.0 11.0 0.00 0.00 0.00 72 1012.8
20260504175521 60 144 4.0 11.0 0.00 0.00 0.00 74 1012.9
20260504175010 60 91 4.0 11.0 0.00 0.00 0.00 73 1012.9
20260504174530 59 148 3.0 11.0 0.00 0.00 0.00 75 1012.9
20260504174015 60 139 4.0 9.0 0.00 0.00 0.00 72 1012.9
20260504173515 61 163 3.0 8.0 0.00 0.00 0.00 72 1012.9
20260504173036 61 180 5.0 8.0 0.00 0.00 0.00 71 1012.9
20260504172513 61 141 3.0 10.0 0.00 0.00 0.00 72 1012.9
20260504172011 61 161 4.0 10.0 0.00 0.00 0.00 71 1012.8
20260504171531 60 195 4.0 9.0 0.00 0.00 0.00 72 1012.8
20260504171014 60 63 1.0 12.0 0.00 0.00 0.00 72 1012.8
20260504170521 60 152 3.0 12.0 0.00 0.00 0.00 74 1012.7
20260504151013 57 219 3.0 12.0 0.00 0.00 0.00 79 1012.3
20260504150511 56 0 3.0 12.0 0.00 0.00 0.00 80 1012.2
20260504141013 55 172 4.0 16.0 0.00 0.00 0.00 81 1011.3
20260504140513 55 137 6.0 13.0 0.00 0.00 0.00 81 1011.2
20260504130514 55 175 1.0 9.0 0.00 0.00 0.00 80 1010.4